Regional Weather Roundup
Issued by NWS

Home | Current Version | Previous Version | Text Only | Print | Product List | Glossary Off
Versions: 1 2 3 4 5 6 7 8 9 10 11 12 13 14 15 16 17 18 19 20 21 22 23 24 25 26 27 28 29 30 31 32 33 34 35 36 37 38 39 40 41 42 43 44 45 46 47 48 49 50

171
ASUS43 KMKX 070900
RWRWI

WISCONSIN REGIONAL WEATHER ROUNDUP
NATIONAL WEATHER SERVICE MILWAUKEE/SULLIVAN WI
300 AM CST SUN FEB 07 2016

NOTE: "FAIR" INDICATES FEW OR NO CLOUDS BELOW 12,000 FEET WITH NO
SIGNIFICANT WEATHER AND/OR OBSTRUCTIONS TO VISIBILITY.

WIZ001-002-006>008-014>016-023>028-071000-
NORTHWEST WISCONSIN

CITY           SKY/WX    TMP DP  RH WIND       PRES   REMARKS
SUPERIOR ARPT  MOCLDY    33  30  87 SW14      29.56F WCI  23
ASHLAND        CLOUDY    32  28  85 S15G21    29.60F WCI  22
HAYWARD        LGT SNOW  30  26  85 S14       29.62F FOG     WCI  19
SIREN          MOCLDY    32  28  83 S8        29.62F WCI  25
CUMBERLAND     CLOUDY    32  28  86 S10       29.66F WCI  24
RICE LAKE      CLOUDY    31  28  86 S7        29.69F WCI  24
CHETEK         CLOUDY    31  28  86 S8        29.68F WCI  24
LADYSMITH      CLOUDY    31  28  88 S9        29.70R WCI  22
EAU CLAIRE     NOT AVBL
MENOMONIE      CLOUDY    34  29  82 S10       29.69F WCI  26
NEW RICHMOND   FLURRIES  32  28  83 SW8       29.67F WCI  25
OSCEOLA        LGT SNOW  33  31  92 S7        29.68F WCI  26
$$

WIZ003>005-009-010-017-018-071000-
NORTH CENTRAL WISCONSIN

CITY           SKY/WX    TMP DP  RH WIND       PRES   REMARKS
MANITOWISH WTR MIX PCPN  28  26  94 SW12      29.65S WCI  18
ARBOR VITAE    CLOUDY    30  27  88 S14       29.64F WCI  19
WOODRUFF       CLOUDY    30  27  88 S14       29.64F WCI  19
RHINELANDER    CLOUDY    29  25  85 S13       29.66F WCI  19
EAGLE RIVER    LGT SNOW  28  25  87 S8        29.65F WCI  20
LAND O LAKES   CLOUDY    28  26  91 S10       29.64F WCI  19
PHILLIPS       CLOUDY    28  27  93 S8        29.65F WCI  20
TOMAHAWK       CLOUDY    28  26  91 S6        29.68F WCI  22
MEDFORD        CLOUDY    29  28  95 S12       29.67F WCI  19
MERRILL        CLOUDY    29  27  92 S8        29.71F WCI  21
$$

WIZ029-030-035-036-043>047-071000-
CENTRAL WISCONSIN

CITY           SKY/WX    TMP DP  RH WIND       PRES   REMARKS
WAUSAU         CLOUDY    31  27  85 S10       29.69F WCI  22
MOSINEE        CLOUDY    30  30 100 S16       29.73F WCI  19
MARSHFIELD     MOCLDY    31  25  78 S14       29.68F WCI  21
STEVENS POINT  CLOUDY    29  26  90 S12       29.75F WCI  19
WAUPACA        CLOUDY    33  28  82 S8        29.80F WCI  26
WAUTOMA        NOT AVBL
WISC RAPIDS    CLOUDY    32  26  78 S8        29.74F WCI  25
CAMP DOUGLAS   NOT AVBL
$$

WIZ011>013-019>022-031-037>040-048>050-071000-
NORTHEAST WISCONSIN

CITY           SKY/WX    TMP DP  RH WIND       PRES   REMARKS
ANTIGO         CLOUDY    27  26  94 S12       29.71F FOG     WCI  17
SHAWANO        CLOUDY    32  27  83 SW6       29.79F WCI  26
OCONTO         CLOUDY    30  29  97 S7        29.81F WCI  23
STURGEON BAY   CLOUDY    30  25  80 S12       29.82F WCI  21
GREEN BAY      CLOUDY    34  28  79 S12       29.79F WCI  25
MANITOWOC      NOT AVBL
APPLETON       CLOUDY    32  28  86 S14G21    29.79F WCI  22
CLINTONVILLE   CLOUDY    32  27  80 S8        29.80F WCI  25
OSHKOSH        CLOUDY    34  28  79 S20       29.80F WCI  23
$$

WIZ032>034-041-042-053>061-071000-
SOUTHWEST WISCONSIN

CITY           SKY/WX    TMP DP  RH WIND       PRES   REMARKS
LA CROSSE      CLOUDY    36  29  75 VRB5      29.75S WCI  32
SPARTA         CLOUDY    35  30  83 SW7G16    29.74F WCI  29
VIROQUA        CLOUDY    34  30  86 S15       29.74F WCI  24
BOSCOBEL       CLOUDY    39  31  72 S12       29.79F WCI  32
PRAIRIE DU CHI CLOUDY    38  28  68 S8        29.80F WCI  32
PLATTEVILLE    PTCLDY    35  32  86 S15       29.84F WCI  26
$$

WIZ056-057-062-063-064-067-068-071000-
SOUTH CENTRAL WISCONSIN

CITY           SKY/WX    TMP DP  RH WIND       PRES   REMARKS
REEDSBURG      CLOUDY    35  30  82 S13       29.78F WCI  27
BARABOO/DELLS  CLOUDY    35  29  80 S13       29.79F WCI  26
LONE ROCK      NOT AVBL
MINERAL POINT  MOCLDY    36  32  87 S13       29.83F WCI  27
MADISON        CLOUDY    35  29  78 S9        29.84F WCI  28
MIDDLETON      CLOUDY    37  31  79 S7        29.85F WCI  31
WATERTOWN      CLOUDY    34  32  93 S10       29.86F WCI  26
MONROE         CLOUDY    34  32  93 S17       29.86F WCI  23
JANESVILLE     CLOUDY    36  32  87 S12       29.89F WCI  27
$$

WIZ051-052-058>065-066-070>072-071000-
SOUTHEAST WISCONSIN

CITY           SKY/WX    TMP DP  RH WIND       PRES   REMARKS
MILWAUKEE      CLOUDY    34  28  79 SW9       29.91F WCI  27
WAUKESHA       CLOUDY    32  28  86 S7        29.90F WCI  26
MILWAUKEE/TIMM CLOUDY    34  28  80 S7        29.91F WCI  28
RACINE         CLOUDY    37  28  70 S13       29.93F WCI  29
BURLINGTON     CLOUDY    33  28  81 S9        29.92F WCI  25
KENOSHA        CLOUDY    36  28  73 S12       29.92F WCI  28
FOND DU LAC    CLOUDY    36  29  75 SW16G24   29.82F WCI  26
SHEBOYGAN      CLOUDY    34  29  82 S12       29.85F WCI  25
WEST BEND      CLOUDY    34  30  86 S12       29.87F WCI  25
JUNEAU         CLOUDY    33  29  86 S13       29.86F WCI  24
$$

LSZ147-162-071000-
LAKE SUPERIOR

STATION/POSITION TIME  TEMP    WIND        PRES    WAVE
                       AIR SEA DIR/SP/G            HT/PER
                 (UTC) (F)     (DEG/KT/KT) (MB)    (FT/S)
DEVILS ISLAND    0800   32     190/  8/ 11 1002.8F
PORT WING        0800          190/ 11/ 20 1002.4F
SAXON HARBOR     0800   33                 1003.0F
$$

LMZ867-665-643>646-071000-
LAKE MICHIGAN

STATION/POSITION TIME  TEMP    WIND        PRES    WAVE
                       AIR SEA DIR/SP/G            HT/PER
                 (UTC) (F)     (DEG/KT/KT) (MB)    (FT/S)
CHAMBERS ISLAND  0800   30     170/  7/ 13 1010.5F
ALGOMA LAKESHORE 0811          230/ 14/ 17   N/A
KEWAUNEE LAKESHO 0800   32     200/ 11/ 13 1010.8F
SHEBOYGAN LAKESH 0800   34     180/ 15/ 15 1013.4F
PORT WASHINGTON  0840   34     200/  5/  7 1012.9F
MILWAUKEE LAKESH 0810   35     210/  9/ 10   N/A
KENOSHA   LAKESH 0800   36     180/  7/ 10 1014.9F
$$

TC  - TEMPERATURE IN CELSIUS
VSB - VISIBILITY IN STATUTE MILES
WCI - WIND CHILL INDEX
HX  - HEAT INDEX





USA.gov is the U.S. government's official web portal to all federal, state and local government web resources and services.